DW6467 Weather Reports


Display with metric or nautical units.
time (UTC)temp
F
wind
direction
speed
MPH
gust
MPH
rain 1hr
in
rain 24hr
in
rain mn
in
humidity
%
barometer
mb
20260503040606 66 324 0.0 0.0 0.00 0.00 0.00 38 1014.4
20260503040103 66 295 0.0 0.0 0.00 0.00 0.00 38 1014.4
20260503035600 67 308 0.0 0.0 0.00 0.00 0.00 38 1014.3
20260503035058 67 334 0.0 0.0 0.00 0.00 0.00 38 1014.3
20260503034554 67 313 0.0 1.0 0.00 0.00 0.00 38 1014.3
20260503034052 68 302 0.0 0.0 0.00 0.00 0.00 37 1014.3
20260503033549 69 303 0.0 1.0 0.00 0.00 0.00 37 1013.9
20260503033047 69 330 1.0 1.0 0.00 0.00 0.00 37 1014.1
20260503032545 69 305 0.0 0.0 0.00 0.00 0.00 36 1013.9
20260503032042 69 349 0.0 1.0 0.00 0.00 0.00 36 1013.7
20260503031540 69 322 0.0 1.0 0.00 0.00 0.00 36 1013.7
20260503031037 70 330 2.0 2.0 0.00 0.00 0.00 35 1013.6
20260503030533 70 324 1.0 2.0 0.00 0.00 0.00 35 1013.7
20260503030030 70 331 0.0 0.0 0.00 0.00 0.00 35 1013.6
20260503025526 71 334 0.0 0.0 0.00 0.00 0.00 34 1013.6
20260503025025 71 329 0.0 0.0 0.00 0.00 0.00 34 1013.7
20260503024520 71 321 1.0 2.0 0.00 0.00 0.00 33 1013.5
20260503024018 71 341 1.0 2.0 0.00 0.00 0.00 33 1013.5
20260503023515 71 320 0.0 1.0 0.00 0.00 0.00 33 1013.7
20260503023012 72 335 1.0 2.0 0.00 0.00 0.00 33 1013.6
20260503022508 72 344 2.0 2.0 0.00 0.00 0.00 32 1013.6
20260503022003 73 311 1.0 2.0 0.00 0.00 0.00 32 1013.5
20260503021500 73 319 2.0 2.0 0.00 0.00 0.00 31 1013.5
20260503020957 73 314 2.0 2.0 0.00 0.00 0.00 31 1013.5
20260503020454 74 333 1.0 3.0 0.00 0.00 0.00 31 1013.5
20260503015950 74 336 2.0 2.0 0.00 0.00 0.00 31 1013.5
20260503015447 74 326 2.0 3.0 0.00 0.00 0.00 31 1013.5
20260503014944 75 319 1.0 1.0 0.00 0.00 0.00 31 1013.6
20260503014441 75 306 1.0 2.0 0.00 0.00 0.00 30 1013.5
20260503013939 76 321 0.0 2.0 0.00 0.00 0.00 30 1013.7
20260503013436 76 327 0.0 2.0 0.00 0.00 0.00 29 1013.7
20260503012933 76 316 2.0 4.0 0.00 0.00 0.00 30 1013.6
20260503012431 77 339 3.0 4.0 0.00 0.00 0.00 28 1013.8
20260503011926 78 323 2.0 3.0 0.00 0.00 0.00 28 1013.8
20260503011423 78 318 2.0 3.0 0.00 0.00 0.00 29 1013.8
20260503010921 78 305 4.0 6.0 0.00 0.00 0.00 28 1013.9
20260503010417 78 349 1.0 2.0 0.00 0.00 0.00 28 1013.8
20260503005915 78 322 1.0 3.0 0.00 0.00 0.00 29 1013.9
20260503005412 78 310 1.0 2.0 0.00 0.00 0.00 29 1014.1
20260503004908 78 323 1.0 2.0 0.00 0.00 0.00 28 1014.3
20260503004405 78 268 1.0 3.0 0.00 0.00 0.00 26 1014.2
20260503003903 78 29 0.0 2.0 0.00 0.00 0.00 25 1014.1
20260503003359 78 336 2.0 4.0 0.00 0.00 0.00 24 1014.3
20260503002856 78 311 2.0 3.0 0.00 0.00 0.00 23 1014.3
20260503002354 79 355 1.0 4.0 0.00 0.00 0.00 21 1014.1
20260503001850 79 341 1.0 2.0 0.00 0.00 0.00 22 1014.2
20260503001346 80 337 4.0 4.0 0.00 0.00 0.00 20 1014.3
20260503000844 79 308 2.0 4.0 0.00 0.00 0.00 24 1014.4
20260503000341 78 346 2.0 3.0 0.00 0.00 0.00 25 1014.2
20260502235838 78 14 3.0 8.0 0.00 0.00 0.00 24 1014.2
20260502235335 79 312 4.0 6.0 0.00 0.00 0.00 25 1014.3
20260502234832 79 25 4.0 7.0 0.00 0.00 0.00 25 1014.3
20260502234329 80 294 3.0 4.0 0.00 0.00 0.00 24 1014.4
20260502233826 80 279 2.0 3.0 0.00 0.00 0.00 26 1014.6
20260502233322 78 296 2.0 4.0 0.00 0.00 0.00 26 1014.4
20260502232819 77 19 4.0 7.0 0.00 0.00 0.00 28 1014.6
20260502232315 79 6 3.0 6.0 0.00 0.00 0.00 26 1014.5
20260502231812 78 19 0.0 4.0 0.00 0.00 0.00 26 1014.5
20260502231310 76 18 3.0 4.0 0.00 0.00 0.00 29 1014.5
20260502230808 76 10 1.0 4.0 0.00 0.00 0.00 28 1014.6
20260502230306 77 8 4.0 7.0 0.00 0.00 0.00 26 1014.7
20260502225802 78 9 5.0 7.0 0.00 0.00 0.00 29 1014.6
20260502225259 78 11 4.0 6.0 0.00 0.00 0.00 26 1014.9
20260502224755 79 54 2.0 3.0 0.00 0.00 0.00 28 1014.8
20260502224252 78 59 2.0 6.0 0.00 0.00 0.00 26 1014.7
20260502223749 77 28 5.0 7.0 0.00 0.00 0.00 27 1015.0
20260502223247 78 16 4.0 10.0 0.00 0.00 0.00 26 1015.1
20260502222745 78 303 3.0 4.0 0.00 0.00 0.00 27 1015.2
20260502222241 77 12 5.0 8.0 0.00 0.00 0.00 27 1015.2
20260502221737 77 282 1.0 7.0 0.00 0.00 0.00 28 1015.3
20260502221234 78 11 5.0 10.0 0.00 0.00 0.00 28 1015.3
20260502220731 76 327 3.0 4.0 0.00 0.00 0.00 27 1015.3
20260502220227 77 16 2.0 8.0 0.00 0.00 0.00 28 1015.5
20260502215724 78 296 4.0 6.0 0.00 0.00 0.00 28 1015.7
20260502215221 76 315 1.0 3.0 0.00 0.00 0.00 28 1015.7
20260502214718 76 310 1.0 4.0 0.00 0.00 0.00 30 1015.8
20260502214215 78 17 5.0 6.0 0.00 0.00 0.00 30 1015.8
20260502213712 78 282 1.0 4.0 0.00 0.00 0.00 30 1015.8
20260502213210 76 322 3.0 4.0 0.00 0.00 0.00 29 1016.0
20260502212708 75 13 3.0 3.0 0.00 0.00 0.00 30 1015.9
20260502212206 74 12 2.0 7.0 0.00 0.00 0.00 30 1016.0
20260502211702 76 55 5.0 6.0 0.00 0.00 0.00 29 1016.2
20260502211159 75 349 4.0 7.0 0.00 0.00 0.00 29 1016.1
20260502210656 74 355 4.0 6.0 0.00 0.00 0.00 29 1016.2
20260502210153 76 359 6.0 10.0 0.00 0.00 0.00 31 1016.4
20260502205650 74 193 1.0 3.0 0.00 0.00 0.00 28 1016.4
20260502205146 74 356 3.0 6.0 0.00 0.00 0.00 31 1016.5
20260502204643 74 18 1.0 6.0 0.00 0.00 0.00 32 1016.5
20260502204141 73 37 7.0 9.0 0.00 0.00 0.00 30 1016.6
20260502203638 73 7 3.0 6.0 0.00 0.00 0.00 33 1016.8
20260502203136 76 50 1.0 3.0 0.00 0.00 0.00 30 1016.6
20260502202630 75 355 3.0 10.0 0.00 0.00 0.00 30 1017.0
20260502202129 76 76 2.0 4.0 0.00 0.00 0.00 30 1017.1
20260502201625 76 332 0.0 3.0 0.00 0.00 0.00 29 1016.8
20260502201122 74 158 2.0 7.0 0.00 0.00 0.00 30 1016.7
20260502200617 72 296 0.0 2.0 0.00 0.00 0.00 31 1017.1
20260502200115 74 106 1.0 6.0 0.00 0.00 0.00 29 1017.2
20260502195613 72 85 0.0 3.0 0.00 0.00 0.00 30 1017.2
20260502195108 73 153 0.0 1.0 0.00 0.00 0.00 31 1017.2
20260502194606 75 37 2.0 8.0 0.00 0.00 0.00 30 1017.4
20260502194056 73 311 0.0 2.0 0.00 0.00 0.00 29 1017.5
20260502193554 74 137 0.0 6.0 0.00 0.00 0.00 29 1017.5
20260502193050 73 72 2.0 4.0 0.00 0.00 0.00 33 1017.5
20260502192546 71 164 2.0 3.0 0.00 0.00 0.00 33 1017.5
20260502192044 71 197 6.0 7.0 0.00 0.00 0.00 34 1017.7
20260502191540 71 174 4.0 6.0 0.00 0.00 0.00 31 1017.5
20260502191038 70 116 3.0 7.0 0.00 0.00 0.00 31 1017.8
20260502190535 69 159 3.0 7.0 0.00 0.00 0.00 32 1017.8
20260502190032 70 118 7.0 9.0 0.00 0.00 0.00 31 1017.7
20260502185526 71 34 3.0 3.0 0.00 0.00 0.00 35 1017.8
20260502185024 69 9 1.0 4.0 0.00 0.00 0.00 34 1018.1
20260502184519 69 10 4.0 8.0 0.00 0.00 0.00 33 1018.1
20260502184016 70 178 4.0 4.0 0.00 0.00 0.00 35 1018.0
20260502183512 69 89 0.0 6.0 0.00 0.00 0.00 35 1018.1
20260502183008 69 86 2.0 3.0 0.00 0.00 0.00 35 1018.1
20260502182503 68 164 0.0 4.0 0.00 0.00 0.00 34 1018.1
20260502181959 66 104 4.0 8.0 0.00 0.00 0.00 34 1018.1
20260502181457 68 142 5.0 6.0 0.00 0.00 0.00 34 1018.1
20260502180956 68 12 1.0 6.0 0.00 0.00 0.00 32 1018.5
20260502180453 68 47 1.0 4.0 0.00 0.00 0.00 34 1018.2
20260502170412 64 109 7.0 14.0 0.00 0.00 0.00 37 1018.9
20260502163855 62 60 1.0 3.0 0.00 0.00 0.00 54 1018.9
20260502163351 61 71 2.0 7.0 0.00 0.00 0.00 54 1018.6
20260502162849 59 60 1.0 4.0 0.00 0.00 0.00 56 1018.9
20260502162345 59 39 3.0 6.0 0.00 0.00 0.00 55 1018.8
20260502161843 59 327 2.0 4.0 0.00 0.00 0.00 54 1019.1
20260502161338 59 295 2.0 6.0 0.00 0.00 0.00 55 1018.7
20260502160837 58 5 2.0 3.0 0.00 0.00 0.00 55 1018.9
20260502160335 59 20 1.0 3.0 0.00 0.00 0.00 52 1018.7
20260502152305 57 326 0.0 0.0 0.00 0.00 0.00 55 1018.8
20260502151802 56 308 0.0 0.0 0.00 0.00 0.00 58 1018.9
20260502151259 55 333 0.0 0.0 0.00 0.00 0.00 58 1019.0
20260502150757 55 305 1.0 1.0 0.00 0.00 0.00 59 1018.9
20260502150253 55 358 0.0 0.0 0.00 0.00 0.00 59 1018.9
20260502130642 45 26 0.0 0.0 0.00 0.00 0.00 73 1018.0
20260502130139 46 34 0.0 0.0 0.00 0.00 0.00 72 1018.1
20260502123625 47 40 0.0 0.0 0.00 0.00 0.00 68 1018.0
20260502123121 48 312 1.0 2.0 0.00 0.00 0.00 66 1017.9
20260502122618 49 17 0.0 0.0 0.00 0.00 0.00 63 1017.8
20260502122114 48 45 1.0 1.0 0.00 0.00 0.00 65 1018.0
20260502121613 48 62 1.0 1.0 0.00 0.00 0.00 65 1018.0
20260502121110 49 31 0.0 0.0 0.00 0.00 0.00 63 1018.1
20260502120606 53 288 0.0 1.0 0.00 0.00 0.00 57 1017.9
20260502115601 49 49 0.0 1.0 0.00 0.00 0.00 63 1018.1
20260502115056 48 33 0.0 1.0 0.00 0.00 0.00 64 1018.0
20260502114553 49 43 0.0 2.0 0.00 0.00 0.00 63 1017.9
20260502114050 49 9 0.0 1.0 0.00 0.00 0.00 63 1017.9
20260502113548 49 357 0.0 1.0 0.00 0.00 0.00 63 1018.1
20260502113046 49 18 1.0 2.0 0.00 0.00 0.00 63 1017.9
20260502112544 48 22 1.0 1.0 0.00 0.00 0.00 66 1017.8
20260502112041 48 38 0.0 0.0 0.00 0.00 0.00 66 1018.0
20260502111538 49 37 0.0 1.0 0.00 0.00 0.00 65 1017.9
20260502111036 48 21 0.0 0.0 0.00 0.00 0.00 66 1018.2
20260502110533 48 14 0.0 0.0 0.00 0.00 0.00 66 1018.0
20260502110031 49 47 0.0 1.0 0.00 0.00 0.00 65 1018.1
20260502105527 49 15 0.0 1.0 0.00 0.00 0.00 65 1018.0
20260502105025 49 25 0.0 0.0 0.00 0.00 0.00 65 1018.1
20260502104522 49 52 0.0 1.0 0.00 0.00 0.00 65 1018.0
20260502104020 49 334 0.0 0.0 0.00 0.00 0.00 64 1017.9
20260502103517 49 13 0.0 0.0 0.00 0.00 0.00 64 1017.8
20260502103015 49 28 0.0 1.0 0.00 0.00 0.00 64 1017.9
20260502102511 50 318 0.0 0.0 0.00 0.00 0.00 62 1018.0
20260502102008 51 271 0.0 1.0 0.00 0.00 0.00 61 1018.0
20260502101506 52 25 0.0 0.0 0.00 0.00 0.00 59 1017.7
20260502101004 53 7 0.0 1.0 0.00 0.00 0.00 58 1017.7
20260502100503 52 357 0.0 0.0 0.00 0.00 0.00 58 1017.9
20260502091437 57 14 1.0 2.0 0.00 0.00 0.00 52 1017.8
20260502090934 56 22 3.0 3.0 0.00 0.00 0.00 53 1017.9
20260502090431 52 28 0.0 0.0 0.00 0.00 0.00 61 1017.8
20260502071320 54 314 0.0 0.0 0.00 0.00 0.00 57 1018.0
20260502070819 54 9 0.0 0.0 0.00 0.00 0.00 58 1018.0
20260502070316 55 33 0.0 0.0 0.00 0.00 0.00 57 1018.1
20260502065815 54 298 0.0 0.0 0.00 0.00 0.00 57 1018.1
20260502065313 54 327 0.0 0.0 0.00 0.00 0.00 58 1018.2
20260502064810 54 29 0.0 0.0 0.00 0.00 0.00 58 1018.2
20260502064308 54 300 0.0 0.0 0.00 0.00 0.00 57 1018.1
20260502063805 55 264 0.0 0.0 0.00 0.00 0.00 59 1018.1
20260502063303 55 257 0.0 0.0 0.00 0.00 0.00 58 1018.2
20260502062759 55 310 0.0 0.0 0.00 0.00 0.00 59 1017.8
20260502062257 55 245 1.0 2.0 0.00 0.00 0.00 58 1018.0
20260502061756 55 328 0.0 0.0 0.00 0.00 0.00 55 1018.1
20260502061253 55 99 0.0 0.0 0.00 0.00 0.00 55 1017.8
20260502060753 56 189 0.0 0.0 0.00 0.00 0.00 55 1017.9
20260502060249 56 236 2.0 3.0 0.00 0.00 0.00 55 1017.9
20260502055748 61 268 3.0 4.0 0.00 0.00 0.00 48 1017.7
20260502055245 61 41 2.0 3.0 0.00 0.00 0.00 44 1017.8
20260502054744 62 72 4.0 7.0 0.00 0.00 0.00 44 1017.9
20260502054241 62 84 3.0 9.0 0.00 0.00 0.00 44 1017.8
20260502053739 62 70 4.0 7.0 0.00 0.00 0.00 44 1017.8
20260502053236 61 91 5.0 7.0 0.00 0.00 0.00 45 1017.9
20260502052734 61 80 4.0 6.0 0.00 0.00 0.00 45 1017.9
20260502052231 61 70 2.0 6.0 0.00 0.00 0.00 45 1017.9
20260502051729 62 32 3.0 6.0 0.00 0.00 0.00 43 1017.9
20260502051227 62 52 4.0 8.0 0.00 0.00 0.00 43 1017.9
20260502050723 61 55 5.0 6.0 0.00 0.00 0.00 42 1018.0
20260502050219 61 66 1.0 6.0 0.00 0.00 0.00 43 1017.7
20260502045717 60 38 5.0 6.0 0.00 0.00 0.00 45 1017.9
20260502045214 61 56 2.0 6.0 0.00 0.00 0.00 45 1017.8
20260502044710 61 48 6.0 7.0 0.00 0.00 0.00 44 1018.1
20260502044206 62 38 5.0 8.0 0.00 0.00 0.00 43 1018.0
20260502043704 63 65 4.0 8.0 0.00 0.00 0.00 41 1018.0
20260502043202 63 65 5.0 7.0 0.00 0.00 0.00 41 1018.0
20260502042701 63 42 4.0 7.0 0.00 0.00 0.00 40 1018.0
20260502042158 64 54 3.0 4.0 0.00 0.00 0.00 39 1018.0
20260502041655 64 76 2.0 4.0 0.00 0.00 0.00 37 1018.2
20260502041153 65 49 2.0 6.0 0.00 0.00 0.00 37 1018.1
20260502040649 65 52 3.0 4.0 0.00 0.00 0.00 37 1018.0